Find Starlink 3853

NORAD ID: 52359 Int'l Des: 2022-045 Owner: SPXS Country: US Constellation: starlink operational
LEOCIRCULAR

現在のビュー

3D地球を読み込み中...

About Starlink 3853

Starlink 3853 (NORAD 52359) is a starlink constellation satellite (v1.5) launched Apr 29, 2022 by SPXS of US. It operates in LEO, CIRCULAR orbit with a mass of 297.00 kg.

Starlink 3853について

説明を読み込み中...

次回通過

Passes for default location (London). Set your location on the main map for personalized predictions.

高度履歴

Loading altitude history...

軌道要素

1 52359C 22045AE 26173.81784722 -.00018274 00000+0 -11460-2 0 1736
2 52359 53.1591 87.0654 0001315 96.1745 350.9438 15.08844698 18
Epoch: Jun 22, 2026 • Age: 25 hours

現在のステータス

高度 545.0 km
速度 7.59 km/s
衛星直下点 -17.36°S, 151.87°W
打ち上げ日 Apr 29, 2022
運用期間 4.1 years
タイプ internet

技術仕様

分類 Payload
質量 297.00 kg
乾燥質量 275.00 kg
総質量 297.00 kg
長さ 0.20 m
直径 2.80 m
スパン 9.00 m
形状 Box + pan
製造者 SPXS
バスタイプ Starlink
フェーズステータス In Orbit
所有者/国 SPXS/US

Most Searched